Zurück zum Katalog

SL-14 DEB

AktivPO
NORAD 25246·DEBRIS·🇷🇺 Russia

Gestartet Aug 18, 1987 von Plesetsk Cosmodrome

Loading…

Nächste Überflüge (nächste 24 Stunden)

TLE

AktuellSource: Space-Track

Epoche: Sep 14, 2026, 09:33 UTC

1 25246U 87068BP  26257.39825624  .00000742  00000-0  33576-3 0  9999
2 25246  82.2473 233.4469 0079545 121.6009  31.2392 14.19234048469440

Verfolge SL-14 DEB in Echtzeit mit AllMySat

Download on the App Store